Regional Weather Roundup
Issued by NWS

Home | Current Version | Previous Version | Text Only | Print | Product List | Glossary Off
Versions: 1 2 3 4 5 6 7 8 9 10 11 12 13 14 15 16 17 18 19 20 21 22 23 24 25 26 27 28 29 30 31 32 33 34 35 36 37 38 39 40 41 42 43 44

000
ASUS45 KBOI 261410
RWRID
WEATHER ROUNDUP FOR IDAHO
NATIONAL WEATHER SERVICE BOISE ID
700 AM MST FRI DEC 26 2014

NOTE: "FAIR" INDICATES FEW OR NO CLOUDS BELOW 12000 FEET
WITH NO SIGNIFICANT WEATHER AND/OR OBSTRUCTIONS TO VISIBILITY

IDZ012-014-261500-
SOUTHWEST IDAHO


CITY           SKY/WX    TMP DP  RH WIND       PRES   REMARKS
BOISE          CLOUDY    29  23  78 W5        30.11R WCI  24
CALDWELL       CLOUDY    32  21  64 SW12      30.16R WCI  23
MOUNTAIN HOME  CLOUDY    28  23  82 NW14      30.09R WCI  17
$$

IDZ016-017-261500-
SOUTHCENTRAL IDAHO


CITY           SKY/WX    TMP DP  RH WIND       PRES   REMARKS
BURLEY         CLOUDY    20  13  74 S6        30.02R WCI  12
JEROME         CLEAR     17  15  92 CALM      30.03R
TWIN FALLS     MOCLDY    22  16  78 SW9       30.02R WCI  12
$$

IDZ019>023-261500-
SOUTHEAST IDAHO


CITY           SKY/WX    TMP DP  RH WIND       PRES   REMARKS
IDAHO FALLS    PTCLDY    -1  -4  87 CALM      30.01R
POCATELLO      PTCLDY     3   1  91 NE7       30.03R WCI  -9
REXBURG        PTCLDY    -2  -4  91 CALM      29.99R
$$

IDZ006-010-011-018-031-032-261500-
CENTRAL IDAHO MOUNTAINS


CITY           SKY/WX    TMP DP  RH WIND       PRES   REMARKS
MCCALL         PTCLDY    15  13  91 CALM      30.03R
HAILEY         PTCLDY    10   3  72 W9        29.98R WCI  -2
STANLEY          N/A     11   6  81 CALM      29.98R
SALMON         CLOUDY    19  14  79 CALM      30.05S
CHALLIS        CLOUDY    20  11  68 SE3       30.02R
$$

IDZ002-004-006-007-026-261500-
NORTHERN IDAHO


CITY           SKY/WX    TMP DP  RH WIND       PRES   REMARKS
LEWISTON       CLOUDY    33  28  81 S6        30.21R WCI  28
LOWELL           N/A     33  31  92 CALM      30.21R
COEUR D`ALENE  CLOUDY    25  25 100 CALM      30.16R VSB 1/4
MULLAN PASS    CLOUDY    19  15  84 NW5       29.96R FOG     WCI  12
$$



USA.gov is the U.S. government's official web portal to all federal, state and local government web resources and services.